This is the latest recevied weather packets stored in our database for station/object N3EDS. If no packets are shown the sender has not sent any weather packets the latest 10 day(s).
| Time | Temp. | Humidity | Pressure | Rain* | Wind** | Luminosity | Snow |
|---|---|---|---|---|---|---|---|
| 1777928347 | 20.56° C | 49% | 1009.9 hPa | 0 mm | - | 532 W/m² | - |
| 1777928044 | 20° C | 51% | 1009.6 hPa | 0 mm | - | 126 W/m² | - |
| 1777927742 | 20° C | 51% | 1009.7 hPa | 0 mm | - | 161 W/m² | - |
| 1777927440 | 21.11° C | 51% | 1010 hPa | 0 mm | - | 138 W/m² | - |
| 1777927140 | 20.56° C | 51% | 1009.7 hPa | 0 mm | - | 628 W/m² | - |
| 1777926836 | 20° C | 52% | 1009.6 hPa | 0 mm | - | 108 W/m² | - |
| 1777926532 | 20.56° C | 51% | 1009.9 hPa | 0 mm | - | 679 W/m² | - |
| 1777926229 | 21.67° C | 50% | 1009.7 hPa | 0 mm | - | 140 W/m² | - |
| 1777925925 | 21.67° C | 47% | 1009.9 hPa | 0 mm | - | 578 W/m² | - |
| 1777925623 | 20.56° C | 51% | 1009.7 hPa | 0 mm | - | 215 W/m² | - |
| 1777925320 | 20.56° C | 50% | 1010 hPa | 0 mm | - | 721 W/m² | - |
| 1777925017 | 20° C | 52% | 1010 hPa | 0 mm | - | 649 W/m² | - |
| 1777924713 | 19.44° C | 51% | 1010 hPa | 0 mm | - | 777 W/m² | - |
| 1777924409 | 20° C | 52% | 1009.8 hPa | 0 mm | - | 153 W/m² | - |
| 1777924106 | 20° C | 52% | 1010.2 hPa | 0 mm | - | 275 W/m² | - |
| 1777923802 | 18.89° C | 52% | 1009.9 hPa | 0 mm | - | 796 W/m² | - |
| 1777923498 | 19.44° C | 53% | 1010.5 hPa | 0 mm | - | 147 W/m² | - |
| 1777923196 | 20° C | 51% | 1009.9 hPa | 0 mm | - | 148 W/m² | - |
| 1777922894 | 20.56° C | 50% | 1010.2 hPa | 0 mm | - | 149 W/m² | - |
| 1777922592 | 20.56° C | 49% | 1010 hPa | 0 mm | - | 384 W/m² | - |
| 1777922290 | 20.56° C | 51% | 1010.5 hPa | 0 mm | - | 248 W/m² | - |
| 1777921987 | 20° C | 52% | 1010.1 hPa | 0 mm | - | 378 W/m² | - |
| 1777921683 | 19.44° C | 50% | 1010.5 hPa | 0 mm | - | 215 W/m² | - |
| 1777921379 | 19.44° C | 52% | 1010.6 hPa | 0 mm | - | 300 W/m² | - |
| 1777921075 | 19.44° C | 51% | 1010.4 hPa | 0 mm | - | 778 W/m² | - |
* Rain latest hour (hover to see other rain measurements)
** Current wind speed in m/s (hover to see current wind gust speed)